Other Public Products
Issued by NWS Charleston, SC

Current Version | Previous Version | Graphics & Text | Print | Product List | Glossary On
Versions: 1 2 3 4 5 6 7 8 9 10 11 12 13 14 15 16 17 18 19 20 21 22 23 24 25 26 27 28 29 30 31 32 33 34 35 36 37 38 39 40 41 42 43 44 45 46 47 48 49 50
000 FPUS82 KCHS 252329 OPUCHS TEST...KCHS/KSAV Gateway Observations...TEST National Weather Service Charleston SC 700 PM EDT MON SEP 25 2017 NOTE: "fair" indicates few or no clouds below 12,000 feet with no significant weather and/or obstructions to visibility. SCZ050-WAZ558-NCZ071-TXZ119-213-PAZ071-DCZ001-FLZ074-172-MI076- NYZ176-178-MAZ016-IL014-TNZ027-NJZ106-GAZ044-MD014-260000- ...Gateway Observations for Charleston International... CITY SKY/WX TMP DP RH WIND PRES REMARKS Chas Airport MOCLDY 79 70 74 N8 29.86S Seattle CLOUDY 64 53 67 S6 30.12S Charlotte MOCLDY 81 64 56 N9 29.94F Dallas DFW MOSUNNY 91 61 36 S17 29.79R HX 91 Dallas Love MOSUNNY 90 61 37 SE18 29.79S HX 90 Philladelphia MOCLDY 81 67 62 SE9 30.01R Wash National MOCLDY 84 69 60 E7 29.99R Baltimore MOCLDY 80 70 71 SE5 29.98F Miami CLOUDY 86 74 67 S12G18 29.85R HX 94 Detroit MOCLDY 83 63 50 SE7 29.99S Newark PTCLDY 77 62 59 VRB3 30.02R Laguardia PTCLDY 79 65 62 S13 30.01S J F K PTCLDY 72 67 84 SE7 30.04S Boston Logan CLEAR 70 66 87 E10 30.05S Ft. Lauderdale MOCLDY 83 77 82 S8 29.83R HX 92 Chicago O`Hare PTCLDY 87 54 32 SE15 29.91S Chicago Midway PTCLDY 87 54 32 E10 29.92S Houston Bush PTSUNNY 85 72 65 SE15 29.81R HX 91 Houston Hobby MOSUNNY 87 71 58 E10 29.80R HX 93 Nashville PTCLDY 86 64 47 E6 29.94F Atlanta CLEAR 82 59 45 E12 29.94S $$ GAZ044-118-TXZ119-213-NCZ071-DCZ001-MDZ014-506-PAZ021-071-NJZ106- NYZ176-178-MAZ106-OHZ011-021-055-MIZ076-KYZ091-ILZ014-INZ047- MNZ060-ONZ431-260000- ...Gateway Observations for Savannah International... CITY SKY/WX TMP DP RH WIND PRES REMARKS Savannah Arpt PTCLDY 83 66 56 N8 29.86S Atlanta CLEAR 82 59 45 E12 29.94S Charlotte MOCLDY 81 64 56 N9 29.94F Dallas DFW MOSUNNY 91 61 36 S17 29.79R HX 91 Houston Bush PTSUNNY 85 72 65 SE15 29.81R HX 91 Wash National MOCLDY 84 69 60 E7 29.99R Wash Dulles MOCLDY 81 67 62 E5 29.99S Baltimore MOCLDY 80 70 71 SE5 29.98F Philadelphia MOCLDY 81 67 62 SE9 30.01R Newark PTCLDY 77 62 59 VRB3 30.02R Laguardia PTCLDY 79 65 62 S13 30.01S J F K PTCLDY 72 67 84 SE7 30.04S Boston CLEAR 70 66 87 E10 30.05S Pittsburg MOCLDY 84 62 47 SW3 30.03S Akron MOCLDY 83 59 44 SE7 30.02F Cleveland MOCLDY 83 64 52 NE8 30.01F Cincinnati CLOUDY 80 69 69 S3 29.98F Columbus CLEAR 80 64 56 SE7 29.98S Detroit MOCLDY 83 63 50 SE7 29.99S Chicago O`Hare PTCLDY 87 54 32 SE15 29.91S Minneapolis CLOUDY 61 57 87 N9 29.98R Indianapolis PTCLDY 85 58 39 SE7 29.96S Toronto Canada MOCLDY 82 64 54 SE6 30.01S $$

USA.gov is the U.S. government's official web portal to all federal, state and local government web resources and services.